FENGYUN 1C DEB, 37682

Orbit data source: Space-Track

FENGYUN 1C DEB, 37682 is space debris in SSO originally from a launch on Mon, 10 May 1999 UTC launched from the Taiyaun Space Center, China (TSC). Fengyun 1C debris stems from the Chinese weather satellite Fengyun-1C, which was intentionally destroyed by a Chinese anti-satellite missile in 2007. This event dramatically increased the amount of space debris, with thousands of trackable fragments posing hazards to satellites and human spaceflight. The Fengyun 1C debris cloud has become a focal point in discussions about space sustainability and the need for international regulations to prevent the creation of new debris.

Loading next visibility...
Identifier
37682, 1999-025EKX
Orbit
SSO
Country
Flag of CNCN / PRC
Related business
Manufacturer
Unknown
Mission
Spacecraft
Bus & Motor
Unknown
Mass
Unknown
Launch date (UTC)
1999-05-10 (27 years ago)
Launch vehicle
Unknown
Launch site
Taiyaun Space Center, China (TSC)
Object type
Payload
Rocket body
Debris
Shape & HBR
Unknown shape, 0.1 m
Radar Cross Section
Small (<0.1 m²)

Expand to show TLE details & history
Last TLE update: 8 months ago

TLE from 8 months ago
0 FENGYUN 1C DEB
1 37682U 99025EKX 25187.85275722  .00001133  00000-0  10768-2 0  9994
2 37682  98.5771 210.9311 0230944  64.2235 298.2550 13.71364306602559
Epoch: 2025-07-06T20:27Z
TLE epoch observation values (Epoch: 2025-07-06T20:27:58.223Z)
Latitude
-0.00003°
Longitude
-21.13199°
Altitude
920.01 km
Speed
7.431 km/s
True Right ascension
14h 03m 43s
True Declination
0° 00' 00"
Sunlit
Object was in daylight at epoch
Visualization orbit readout
Latitude
Unknown
Longitude
Unknown
Altitude
Unknown
Speed
Unknown
Apparent Right ascension
Unknown
Apparent Declination
Unknown
Sunlit
N/A
Visualization observer readout
Local Sidereal Time
13:00:01
Azimuth
Unknown
Elevation
Unknown
Doppler factor
Unknown
Orbital elements
Apogee altitude
1,162.099 km
Perigee altitude
821.686 km
Semi-major axis
7,370.03 km
Eccentricity
0.02309
Inclination
98.5771°
RAAN
210.9311°
Arg. of periapsis
64.2235°
True anomaly
295.89229°
Mean anomaly
298.255°
Eccentric anomaly
297.07682°
Mean motion
3.43036 °/min
Orbital period
104.95 mins
BSTAR
0.0010768
Loading maneuver chart data...
Computing Atmospheric mass density...
Loading historical data...
Loading historical data...
Loading historical data...
Loading historical data...
Loading historical data...
Loading historical data...
Loading historical data...

Documentation

Showing up to 5 results
|